Estació municipal de Vilalleons (Osona, E.N.Guilleries-Savassona)

Consulta les dades en temps real de l'estació municipal de Vilalleons





Hora UTC 11:20
Temperatura 22.3 ºC
Humitat 59.0 %
Pressió 1012.1 hPa
Pluja 0.0 mm
Velocitat vent 4.8 km/h
Direcció vent W

Webcam

Dades diàries 2026-05-04



Hora UTC (hivern +1h; estiu +2h)
Temperatura (ºC) Humitat (%) Pressió (hPa) Velocitat vent (km/h) Precipitació (mm)
Hora UTC Aire Humitat Pressió Vel. Dir. Vel. Max Dir. Intent. màx 5 min.
00:05 11.8 92.0 1013.6 0.0 ENE 0.0 0.0
00:10 11.8 92.0 1013.6 0.0 ENE 0.0 0.0
00:15 11.8 92.0 1013.4 0.0 ENE 0.0 0.0
00:20 11.8 92.0 1013.6 0.0 ENE 0.0 0.0
00:25 11.7 92.0 1013.7 0.0 ENE 0.0 0.0
00:30 11.7 92.0 1013.6 0.0 ENE 0.0 0.0
00:35 11.7 92.0 1013.7 0.0 ENE 0.0 0.0
00:40 11.6 92.0 1013.7 0.0 ENE 0.0 0.0
00:45 11.6 92.0 1013.6 0.0 ENE 0.0 0.0
00:50 11.5 92.0 1013.6 0.0 ENE 0.0 0.0
00:55 11.5 92.0 1013.7 0.0 ENE 0.0 0.0
01:00 11.6 92.0 1013.7 0.0 ENE 0.0 0.0
01:05 11.6 92.0 1013.6 0.0 ENE 0.0 0.0
01:10 11.6 92.0 1013.3 0.0 ENE 0.0 0.0
01:15 11.5 92.0 1013.2 0.0 ENE 0.0 0.0
01:20 11.4 92.0 1013.3 0.0 ENE 0.0 0.0
01:25 11.4 93.0 1013.4 0.0 ENE 0.0 0.0
01:30 11.3 92.0 1013.4 0.0 ENE 0.0 0.0
01:35 11.2 92.0 1013.3 0.0 ENE 0.0 0.0
01:40 11.2 92.0 1013.4 0.0 ENE 0.0 0.0
01:45 11.2 93.0 1013.3 0.0 ENE 0.0 0.0
01:50 11.1 93.0 1013.4 0.0 ENE 0.0 0.0
01:55 11.1 93.0 1013.4 0.0 ENE 0.0 0.0
02:00 11.1 93.0 1013.3 0.0 ENE 0.0 0.0
02:05 11.1 93.0 1013.2 0.0 ENE 0.0 0.0
02:10 11.1 93.0 1013.2 1.6 ENE 3.2 0.0
02:15 11.1 93.0 1013.2 0.0 ENE 3.2 0.0
02:20 11.1 93.0 1013.1 0.0 ENE 1.6 0.0
02:25 11.1 93.0 1013.1 0.0 ENE 0.0 0.0
02:30 11.1 93.0 1013.1 0.0 ENE 3.2 0.0
02:35 11.1 93.0 1013.1 1.6 ENE 3.2 0.0
02:40 11.1 93.0 1013.1 0.0 ENE 3.2 0.0
02:45 11.1 94.0 1013.0 0.0 ENE 1.6 0.0
02:50 11.1 94.0 1013.0 0.0 ENE 0.0 0.0
02:55 11.1 94.0 1012.9 0.0 ENE 0.0 0.0
03:00 11.2 94.0 1013.0 0.0 ENE 0.0 0.0
03:05 11.2 94.0 1013.0 0.0 ENE 0.0 0.0
03:10 11.2 94.0 1013.1 0.0 ENE 0.0 0.0
03:15 11.2 94.0 1013.2 0.0 ENE 0.0 0.0
03:20 11.2 94.0 1013.1 0.0 ENE 0.0 0.0
03:25 11.3 94.0 1013.1 0.0 ENE 0.0 0.0
03:30 11.3 94.0 1012.7 3.2 ENE 3.2 0.0
03:35 11.3 94.0 1012.7 0.0 ENE 3.2 0.0
03:40 11.3 94.0 1012.7 0.0 ENE 3.2 0.0
03:45 11.4 94.0 1012.6 0.0 ENE 1.6 0.0
03:50 11.3 94.0 1012.6 0.0 ENE 0.0 0.0
03:55 11.3 94.0 1012.7 0.0 ENE 1.6 0.0
04:00 11.2 94.0 1012.7 0.0 ENE 0.0 0.0
04:05 11.2 94.0 1012.6 0.0 ENE 0.0 0.0
04:10 11.2 94.0 1012.7 0.0 ENE 0.0 0.0
04:15 11.1 94.0 1012.8 0.0 ENE 0.0 0.0
04:20 11.0 94.0 1012.7 0.0 ENE 0.0 0.0
04:25 10.9 94.0 1012.6 0.0 ENE 0.0 0.0
04:30 10.8 94.0 1012.6 0.0 ENE 0.0 0.0
04:35 10.7 94.0 1012.6 0.0 ENE 0.0 0.0
04:40 10.7 94.0 1012.6 0.0 ENE 0.0 0.0
04:45 10.6 94.0 1012.6 0.0 ENE 0.0 0.0
04:50 10.6 94.0 1012.5 0.0 ENE 0.0 0.0
04:55 10.5 94.0 1012.8 0.0 ENE 0.0 0.0
05:00 10.5 94.0 1012.7 0.0 ENE 0.0 0.0
05:05 10.5 94.0 1012.6 0.0 ENE 0.0 0.0
05:10 10.5 94.0 1012.7 0.0 ENE 0.0 0.0
05:15 10.4 94.0 1012.7 0.0 ENE 0.0 0.0
05:20 10.4 94.0 1012.7 0.0 ENE 0.0 0.0
05:25 10.4 94.0 1012.7 0.0 ENE 0.0 0.0
05:30 10.5 95.0 1012.6 0.0 ENE 0.0 0.0
05:35 10.7 95.0 1012.7 0.0 ENE 0.0 0.0
05:40 10.8 96.0 1012.6 0.0 ENE 0.0 0.0
05:45 10.9 96.0 1012.5 0.0 ENE 0.0 0.0
05:50 11.1 96.0 1012.6 0.0 ENE 0.0 0.0
05:55 11.2 96.0 1012.5 0.0 ENE 0.0 0.0
06:00 11.3 96.0 1012.5 0.0 ENE 0.0 0.0
06:05 11.4 96.0 1012.6 0.0 ENE 0.0 0.0
06:10 11.5 96.0 1012.8 0.0 ENE 0.0 0.0
06:15 11.6 96.0 1012.8 0.0 ENE 0.0 0.0
06:20 11.6 96.0 1012.9 0.0 ENE 0.0 0.0
06:25 11.7 96.0 1012.8 0.0 ENE 0.0 0.0
06:30 11.9 97.0 1012.7 0.0 ENE 0.0 0.0
06:35 12.0 97.0 1012.8 0.0 ENE 0.0 0.0
06:40 12.1 97.0 1012.7 0.0 ENE 0.0 0.0
06:45 12.2 97.0 1012.9 0.0 ENE 0.0 0.0
06:50 12.2 96.0 1012.9 0.0 ENE 0.0 0.0
06:55 12.4 97.0 1012.8 0.0 ENE 0.0 0.0
07:00 12.6 96.0 1012.8 1.6 WNW 3.2 0.0
07:05 12.7 96.0 1012.7 0.0 WNW 3.2 0.0
07:10 12.7 95.0 1012.6 0.0 WNW 4.8 0.0
07:15 12.8 94.0 1012.6 0.0 NW 4.8 0.0
07:20 13.1 93.0 1012.8 0.0 NW 3.2 0.0
07:25 13.3 91.0 1012.7 3.2 NNE 6.4 0.0
07:30 13.7 91.0 1012.8 1.6 NW 6.4 0.0
07:35 13.9 88.0 1012.9 1.6 WSW 6.4 0.0
07:40 14.1 88.0 1013.0 1.6 NNW 6.4 0.0
07:45 14.3 87.0 1013.0 3.2 WSW 6.4 0.0
07:50 14.3 86.0 1013.0 4.8 NNE 6.4 0.0
07:55 14.3 86.0 1012.7 1.6 SW 6.4 0.0
08:00 14.4 85.0 1012.8 4.8 NNE 8.0 0.0
08:05 14.6 85.0 1012.8 4.8 N 8.0 0.0
08:10 14.7 84.0 1013.0 4.8 NW 6.4 0.0
08:15 14.8 84.0 1012.9 1.6 NW 6.4 0.0
08:20 15.0 84.0 1012.8 1.6 NNW 4.8 0.0
08:25 15.2 83.0 1012.8 3.2 NNE 6.4 0.0
08:30 15.6 83.0 1012.7 4.8 N 6.4 0.0
08:35 15.8 82.0 1012.7 4.8 WNW 9.7 0.0
08:40 16.0 82.0 1012.9 1.6 W 9.7 0.0
08:45 16.3 81.0 1012.9 3.2 NNW 8.0 0.0
08:50 16.7 79.0 1012.8 3.2 SW 8.0 0.0
08:55 17.2 79.0 1012.8 3.2 WNW 8.0 0.0
09:00 17.4 77.0 1012.7 8.0 NW 8.0 0.0
09:05 17.4 76.0 1012.8 4.8 NW 9.7 0.0
09:10 17.6 77.0 1012.9 4.8 NW 14.5 0.0
09:15 17.7 76.0 1012.7 4.8 W 14.5 0.0
09:20 17.8 77.0 1012.6 3.2 W 11.3 0.0
09:25 18.1 74.0 1012.7 6.4 WSW 8.0 0.0
09:30 18.2 75.0 1012.7 3.2 W 11.3 0.0
09:35 18.2 73.0 1012.7 3.2 WSW 11.3 0.0
09:40 18.3 75.0 1012.6 0.0 WSW 6.4 0.0
09:45 18.4 73.0 1012.6 3.2 SW 9.7 0.0
09:50 18.7 74.0 1012.6 3.2 SW 9.7 0.0
09:55 18.8 71.0 1012.6 0.0 SW 11.3 0.0
10:00 18.8 71.0 1012.4 6.4 N 9.7 0.0
10:05 18.7 73.0 1012.0 3.2 NNW 9.7 0.0
10:10 18.7 73.0 1012.0 1.6 SSE 6.4 0.0
10:15 18.7 74.0 1012.0 1.6 SW 6.4 0.0
10:20 18.7 72.0 1012.0 3.2 NW 8.0 0.0
10:25 18.4 74.0 1012.1 6.4 NE 8.0 0.0
10:30 18.2 74.0 1012.1 4.8 NNW 8.0 0.0
10:35 18.1 73.0 1011.9 1.6 NNW 8.0 0.0
10:40 18.1 74.0 1012.0 0.0 NNW 6.4 0.0
10:45 18.3 74.0 1012.0 0.0 NNW 1.6 0.0
10:50 19.1 73.0 1012.2 1.6 ESE 4.8 0.0
10:55 19.9 71.0 1012.4 1.6 S 4.8 0.0
11:00 20.4 68.0 1012.2 3.2 W 6.4 0.0
11:05 21.0 66.0 1012.2 1.6 SW 6.4 0.0
11:10 21.6 65.0 1012.3 1.6 NNW 11.3 0.0
11:15 22.2 63.0 1012.1 3.2 SE 11.3 0.0
11:20 22.3 59.0 1012.1 4.8 W 9.7 0.0
Màxima 22.3 97.0 1013.7 8.0 NW 14.5 0.0
Mínima 10.4 59.0 1011.9
Total 0.0